This demonstration page uses our WeatherBlox Daily Observations layout. Learn more.

Left ArrowRight Arrow

Hourly Observations for October 7, 2021

Temp ( °F °C ) Dew Point ( °F °C ) Humidity (%) Winds ( mph kmh ) Pressure ( in mb ) Visibility ( mi km ) Precip ( " mm )
12:53 am 00:53 Clear 58 14.4 53 11.7 84 84 SSE 7 11 30.04 1017 10 16 N/A
1:53 am 01:53 Clear 57 13.9 53 11.7 87 87 SSE 7 11 30.04 1017 10 16 N/A
2:53 am 02:53 Clear 57 13.9 54 12.2 90 90 SSE 7 11 30.05 1018 10 16 N/A
3:53 am 03:53 Clear 56 13.3 54 12.2 93 93 SSE 7 11 30.05 1018 10 16 N/A
4:53 am 04:53 Clear 55 12.8 53 11.7 93 93 SSE 5 7 30.04 1017 10 16 N/A
5:53 am 05:53 Clear 56 13.3 54 12.2 93 93 SSE 7 11 30.05 1018 10 16 N/A
6:53 am 06:53 Clear 55 12.8 54 12.2 96 96 SSE 7 11 30.05 1018 10 16 N/A
7:53 am 07:53 Sunny 55 12.8 54 12.2 96 96 SSE 8 13 30.05 1018 9 14 N/A
8:53 am 08:53 Sunny 57 13.9 54 12.2 90 90 SSE 7 11 30.06 1018 10 16 N/A
9:53 am 09:53 Sunny 60 15.6 56 13.3 86 86 SSE 7 11 30.06 1018 10 16 N/A
10:53 am 10:53 Sunny 66 18.9 58 14.4 75 75 SSE 8 13 30.05 1018 10 16 N/A
11:53 am 11:53 Mostly Cloudy 72 22.2 56 13.3 57 57 SSE 12 19 30.03 1017 10 16 N/A
12:53 pm 12:53 Sunny 77 25 55 12.8 47 47 S 12 19 30.00 1016 10 16 N/A
1:53 pm 13:53 Sunny 79 26.1 52 11.1 39 39 SE 13 20 29.96 1015 10 16 N/A
2:53 pm 14:53 Sunny 80 26.7 53 11.7 39 39 SSE 8 13 29.94 1014 10 16 N/A
3:53 pm 15:53 Sunny 81 27.2 51 10.6 35 35 S 9 15 29.92 1013 10 16 N/A
4:53 pm 16:53 Sunny 81 27.2 51 10.6 35 35 S 13 20 29.92 1013 10 16 N/A
5:53 pm 17:53 Sunny 80 26.7 51 10.6 37 37 SSE 9 15 29.92 1013 10 16 N/A
6:53 pm 18:53 Sunny 76 24.4 52 11.1 43 43 SSE 5 7 29.92 1013 10 16 N/A
7:53 pm 19:53 Clear 72 22.2 52 11.1 50 50 SSE 7 11 29.93 1014 10 16 N/A
8:53 pm 20:53 Clear 70 21.1 52 11.1 53 53 SE 8 13 29.94 1014 10 16 N/A
9:53 pm 21:53 Clear 66 18.9 56 13.3 70 70 ESE 10 17 29.95 1014 10 16 N/A
10:53 pm 22:53 Clear 63 17.2 56 13.3 78 78 SE 10 17 29.95 1014 10 16 N/A
11:53 pm 23:53 Clear 62 16.7 55 12.8 78 78 SE 7 11 29.94 1014 10 16 N/A

Powered by AerisWeather